Погода в Пересна

Россия / Смоленская область     54°31′12″N   32°24′38″E
темп.,
°C
ветер,
м/с
пор.,
м/с
влажн.,
%
обл.,
%
осадки,
мм/ч
давл.,
гПа
погр.,
м
6 марта, сб
сб600:00−7сз379698 0.0 1017180
03:00−7сз369198 0.3 1019261
06:00−11зсз349055 0.0 102054
09:00−10зсз379028 0.0 1021174
12:00−5сз47800 0.0 1021713
15:00−4зсз587226 0.1 10191291
18:00−6з348339 0.1 101876
21:00−9юз5108631 0.1 1017181
7 марта, вс
вс700:00−7зюз7158449 0.0 1014486
03:00−5юз9178774 0.2 1010750
06:00−4юз101891100 0.2 1005905
09:00−3зюз121994100 1.4 10001092
12:000з121896100 1.1 9981300
15:00−3зсз8166998 3.3 10001632
18:00−4з7147567 0.1 1001742
21:00−6зюз7177633 0.1 999595
8 марта, пн
пн800:00−5з8169048 0.1 9991181
03:00−10зсз9177741 0.4 1002874
06:00−10сз7148684 0.0 1005637
09:00−10зсз5129079 0.0 1007587
12:00−7зсз7108691 0.0 1008893
15:00−6сз698396 0.1 1010976
18:00−7зсз4892100 0.1 1011287
21:00−11ссз349193 0.2 101369
9 марта, вт
вт900:00−11ссз349598 0.0 101586
03:00−12ссз349699 0.0 101687
06:00−12ссз3596100 0.0 1017129
09:00−13ссз489366 0.0 1019367
12:00−11ссз468430 0.0 1020601
15:00−9сз468043 0.0 1021770
18:00−11зсз338865 0.0 102166
21:00−12зюз238849 0.0 102342
10 марта, ср
ср1000:00−11ююз469399 0.1 1022162
03:00−9зюз6129499 0.8 1020451
06:00−7з61390100 1.1 1019600
09:00−6з61288100 1.1 1019697
12:00−4зсз6993100 0.3 1020746
15:00−7всв5796100 1.4 1021326
18:00−8в4795100 0.4 1022333
21:00−11вюв489499 0.8 1024297